Location: Unspecified
(0.0000°N, 0.0000°E)
Time: 07:56:18
(UTC+00:00)

N. Korean satellite - Pass Details

Date: 20 November 2017
Orbit: 460 x 514 km, 97.2° (Epoch: 20 November)

Event Time Altitude Azimuth Distance (km) Brightness Sun altitude
Rises 18:04:49 0° 157° (SSE) 2,482 10.1 -4.5°
Reaches altitude 10° 18:06:57 10° 149° (SSE) 1,605 9.1 -5.0°
Maximum altitude 18:10:10 38° 79° (E) 716 6.9 -5.7°
Drops below altitude 10° 18:13:23 10° 10° (N) 1,604 8.9 -6.5°
Sets 18:15:31 0° 2° (N) 2,481 9.9 -7.0°
